Back to Top

Language: 

My Weather Underground Personal Weather Station Historical Data with Graphs...

Delerius Weather Station Historical Data
Daily Summary for June 27, 2017 Units:  Metric    English   Both
« Previous Day
Next Day »
Daily Weekly Monthly Yearly Custom
  High: Low: Average:
Temperature: 16.7 °C 12.2 °C 14 °C
Dew Point: 13.1 °C 8.1 °C 11 °C
Humidity: 95 % 68 % 82 %
Wind Speed: 14.5 km/h 1.6 km/h 8.2 km/h
Wind Gust: 29 km/h - -
Wind:- - ESE
Pressure: 1012.8 hPa 1004.3 hPa -
Precipitation: 0.76 mm    
Historical Graphs
 
 
Tabular Data for June 27, 2017
Time Temperature Dew Point Pressure Wind Wind Speed Wind Gust Humidity Rainfall Rate (Hourly) solar Conditions
00:00 14.2 °C 8.4 °C 1012.8 hPa ESE 6.4 km/h 16.1 km/h 68 % 0 mm 0 W/m2
00:05 14.1 °C 8.3 °C 1012.8 hPa ESE 8 km/h 16.1 km/h 68 % 0 mm 0 W/m2
00:10 14.1 °C 8.3 °C 1012.8 hPa ESE 6.4 km/h 14.5 km/h 68 % 0 mm 0 W/m2
00:15 14.1 °C 8.3 °C 1012.4 hPa ESE 6.4 km/h 12.9 km/h 68 % 0 mm 0 W/m2
00:20 14.1 °C 8.3 °C 1012.8 hPa ESE 6.4 km/h 14.5 km/h 68 % 0 mm 0 W/m2
00:25 14.1 °C 8.3 °C 1012.4 hPa SE 6.4 km/h 14.5 km/h 68 % 0 mm 0 W/m2
00:30 14.1 °C 8.3 °C 1012.4 hPa SE 6.4 km/h 12.9 km/h 68 % 0 mm 0 W/m2
00:35 14 °C 8.2 °C 1012.4 hPa SE 6.4 km/h 14.5 km/h 68 % 0 mm 0 W/m2
00:40 14 °C 8.2 °C 1012.4 hPa SE 8 km/h 14.5 km/h 68 % 0 mm 0 W/m2
00:45 14 °C 8.2 °C 1012.4 hPa SE 11.3 km/h 19.3 km/h 68 % 0 mm 0 W/m2
00:50 14 °C 8.2 °C 1012.1 hPa SE 9.7 km/h 19.3 km/h 68 % 0 mm 0 W/m2
00:55 13.9 °C 8.1 °C 1012.1 hPa SE 9.7 km/h 16.1 km/h 68 % 0 mm 0 W/m2
01:00 13.9 °C 8.3 °C 1012.1 hPa ESE 8 km/h 16.1 km/h 69 % 0 mm 0 W/m2
01:01 13.9 °C 8.3 °C 1012.1 hPa ESE 8 km/h 16.1 km/h 69 % 0 mm 0 W/m2
01:06 13.9 °C 8.3 °C 1012.1 hPa ESE 8 km/h 14.5 km/h 69 % 0 mm 0 W/m2
01:11 13.9 °C 8.5 °C 1012.1 hPa ESE 8 km/h 12.9 km/h 70 % 0 mm 0 W/m2
01:16 13.8 °C 8.4 °C 1012.1 hPa ESE 6.4 km/h 12.9 km/h 70 % 0 mm 0 W/m2
01:21 13.8 °C 8.4 °C 1012.1 hPa ESE 6.4 km/h 14.5 km/h 70 % 0 mm 0 W/m2
01:27 13.8 °C 8.4 °C 1012.1 hPa ESE 6.4 km/h 14.5 km/h 70 % 0 mm 0 W/m2
01:32 13.8 °C 8.6 °C 1012.1 hPa ESE 6.4 km/h 14.5 km/h 71 % 0 mm 0 W/m2
01:37 13.8 °C 8.6 °C 1012.1 hPa ESE 4.8 km/h 11.3 km/h 71 % 0 mm 0 W/m2
01:42 13.8 °C 8.8 °C 1011.7 hPa ESE 4.8 km/h 11.3 km/h 72 % 0 mm 0 W/m2
01:47 13.8 °C 9.1 °C 1011.7 hPa ESE 6.4 km/h 11.3 km/h 73 % 0 mm 0 W/m2
01:52 13.7 °C 8.9 °C 1011.7 hPa ESE 6.4 km/h 14.5 km/h 73 % 0 mm 0 W/m2
01:57 13.7 °C 8.9 °C 1011.7 hPa ESE 4.8 km/h 14.5 km/h 73 % 0 mm 0 W/m2
02:02 13.7 °C 9.2 °C 1011.7 hPa East 4.8 km/h 11.3 km/h 74 % 0 mm 0 W/m2
02:07 13.7 °C 9.2 °C 1011.7 hPa ESE 4.8 km/h 11.3 km/h 74 % 0 mm 0 W/m2
02:12 13.7 °C 9.3 °C 1011.7 hPa ESE 4.8 km/h 11.3 km/h 75 % 0 mm 0 W/m2
02:17 13.7 °C 9.3 °C 1011.4 hPa ESE 6.4 km/h 12.9 km/h 75 % 0 mm 0 W/m2
02:22 13.7 °C 9.6 °C 1011.4 hPa ESE 8 km/h 12.9 km/h 76 % 0 mm 0 W/m2
02:27 13.7 °C 9.6 °C 1011.4 hPa ESE 8 km/h 12.9 km/h 76 % 0 mm 0 W/m2
02:32 13.7 °C 9.6 °C 1011.4 hPa ESE 8 km/h 12.9 km/h 76 % 0 mm 0 W/m2
02:37 13.7 °C 9.7 °C 1011.4 hPa ESE 8 km/h 12.9 km/h 77 % 0 mm 0 W/m2
02:42 13.7 °C 9.7 °C 1011.1 hPa ESE 8 km/h 12.9 km/h 77 % 0 mm 0 W/m2
02:48 13.6 °C 9.7 °C 1011.1 hPa ESE 8 km/h 12.9 km/h 77 % 0 mm 0 W/m2
02:53 13.6 °C 9.8 °C 1011.1 hPa ESE 8 km/h 12.9 km/h 78 % 0 mm 0 W/m2
02:54 13.6 °C 9.8 °C 1011.1 hPa ESE 8 km/h 12.9 km/h 78 % 0 mm 0 W/m2
02:59 13.6 °C 9.8 °C 1011.1 hPa ESE 6.4 km/h 11.3 km/h 78 % 0 mm 0 W/m2
03:04 13.6 °C 9.8 °C 1011.1 hPa ESE 6.4 km/h 14.5 km/h 78 % 0 mm 0 W/m2
03:09 13.6 °C 9.8 °C 1011.1 hPa ESE 8 km/h 14.5 km/h 78 % 0 mm 0 W/m2
03:15 13.6 °C 9.8 °C 1010.7 hPa East 6.4 km/h 12.9 km/h 78 % 0 mm 0 W/m2
03:20 13.6 °C 10 °C 1010.7 hPa ESE 4.8 km/h 11.3 km/h 79 % 0 mm 0 W/m2
03:25 13.5 °C 9.9 °C 1010.7 hPa ESE 6.4 km/h 12.9 km/h 79 % 0 mm 0 W/m2
03:30 13.5 °C 9.9 °C 1010.7 hPa East 6.4 km/h 12.9 km/h 79 % 0 mm 0 W/m2
03:35 13.5 °C 9.9 °C 1010.7 hPa East 4.8 km/h 14.5 km/h 79 % 0 mm 0 W/m2
03:40 13.5 °C 9.9 °C 1010.7 hPa ESE 6.4 km/h 14.5 km/h 79 % 0 mm 0 W/m2
03:45 13.5 °C 9.9 °C 1010.7 hPa ESE 8 km/h 11.3 km/h 79 % 0 mm 0 W/m2
03:50 13.5 °C 9.9 °C 1010.7 hPa ESE 6.4 km/h 11.3 km/h 79 % 0 mm 0 W/m2
03:55 13.5 °C 10.1 °C 1010.7 hPa ESE 3.2 km/h 11.3 km/h 80 % 0 mm 0 W/m2
04:00 13.5 °C 10.1 °C 1010.7 hPa East 3.2 km/h 9.7 km/h 80 % 0 mm 0 W/m2
04:05 13.4 °C 10 °C 1010.4 hPa ESE 3.2 km/h 9.7 km/h 80 % 0 mm 0 W/m2
04:10 13.3 °C 9.9 °C 1010.4 hPa ESE 4.8 km/h 9.7 km/h 80 % 0 mm 0 W/m2
04:15 13.3 °C 10.1 °C 1010.4 hPa East 3.2 km/h 8 km/h 81 % 0 mm 0 W/m2
04:20 13.3 °C 10.1 °C 1010.4 hPa East 1.6 km/h 9.7 km/h 81 % 0 mm 0 W/m2
04:25 13.3 °C 10.1 °C 1010.4 hPa East 3.2 km/h 9.7 km/h 81 % 0 mm 0 W/m2
04:30 13.3 °C 10.1 °C 1010.4 hPa ESE 4.8 km/h 12.9 km/h 81 % 0 mm 0 W/m2
04:35 13.3 °C 10.1 °C 1010.4 hPa ESE 4.8 km/h 12.9 km/h 81 % 0 mm 0 W/m2
04:40 13.3 °C 10.1 °C 1010.4 hPa ESE 4.8 km/h 9.7 km/h 81 % 0 mm 0 W/m2
04:45 13.2 °C 9.8 °C 1010.4 hPa SE 4.8 km/h 11.3 km/h 80 % 0 mm 0 W/m2
04:50 13.2 °C 9.6 °C 1010 hPa SE 6.4 km/h 12.9 km/h 79 % 0 mm 0 W/m2
04:55 13.2 °C 9.4 °C 1010 hPa SE 8 km/h 12.9 km/h 78 % 0 mm 0 W/m2
05:00 13.2 °C 9.3 °C 1010 hPa SE 8 km/h 16.1 km/h 77 % 0 mm 0 W/m2
05:04 13.2 °C 9.3 °C 1010 hPa ESE 8 km/h 16.1 km/h 77 % 0 mm 0 W/m2
05:09 13.3 °C 9.3 °C 1010 hPa ESE 6.4 km/h 12.9 km/h 77 % 0 mm 0 W/m2
05:14 13.2 °C 9.1 °C 1010 hPa ESE 6.4 km/h 12.9 km/h 76 % 0 mm 0 W/m2
05:19 13.2 °C 8.9 °C 1010 hPa ESE 8 km/h 14.5 km/h 75 % 0 mm 0 W/m2
05:24 13.3 °C 8.9 °C 1010 hPa ESE 6.4 km/h 14.5 km/h 75 % 0 mm 5 W/m2
05:29 13.3 °C 8.8 °C 1010 hPa ESE 8 km/h 14.5 km/h 74 % 0 mm 5 W/m2
05:34 13.3 °C 8.8 °C 1010 hPa ESE 8 km/h 14.5 km/h 74 % 0 mm 7 W/m2
05:39 13.3 °C 9.2 °C 1010 hPa ESE 8 km/h 12.9 km/h 76 % 0 mm 7 W/m2
05:44 13.3 °C 9.2 °C 1010 hPa ESE 8 km/h 12.9 km/h 76 % 0 mm 9 W/m2
05:50 13.2 °C 9.3 °C 1010 hPa ESE 8 km/h 12.9 km/h 77 % 0 mm 11 W/m2
05:55 13.2 °C 9.4 °C 1010 hPa ESE 6.4 km/h 12.9 km/h 78 % 0 mm 12 W/m2
06:00 13.2 °C 9.4 °C 1010 hPa ESE 6.4 km/h 12.9 km/h 78 % 0 mm 12 W/m2
06:05 13.2 °C 9.6 °C 1010 hPa ESE 6.4 km/h 12.9 km/h 79 % 0 mm 12 W/m2
06:10 13.2 °C 9.6 °C 1010 hPa ESE 4.8 km/h 11.3 km/h 79 % 0 mm 11 W/m2
06:15 13.2 °C 9.6 °C 1010 hPa ESE 3.2 km/h 9.7 km/h 79 % 0 mm 11 W/m2
06:20 13.1 °C 9.6 °C 1010 hPa East 4.8 km/h 11.3 km/h 79 % 0 mm 12 W/m2
06:25 13.1 °C 9.6 °C 1010 hPa ESE 6.4 km/h 11.3 km/h 79 % 0 mm 12 W/m2
06:30 13.1 °C 9.6 °C 1010 hPa ESE 6.4 km/h 11.3 km/h 79 % 0 mm 9 W/m2
06:35 13 °C 9.6 °C 1010 hPa ESE 6.4 km/h 11.3 km/h 80 % 0 mm 9 W/m2
06:40 12.9 °C 9.6 °C 1010 hPa ESE 4.8 km/h 12.9 km/h 80 % 0 mm 9 W/m2
06:45 12.9 °C 9.6 °C 1010 hPa ESE 6.4 km/h 12.9 km/h 80 % 0 mm 11 W/m2
06:50 12.8 °C 9.4 °C 1010.4 hPa ESE 8 km/h 12.9 km/h 80 % 0 mm 14 W/m2
06:55 12.8 °C 9.4 °C 1010 hPa ESE 8 km/h 12.9 km/h 80 % 0 mm 21 W/m2
07:00 12.8 °C 9.4 °C 1010 hPa ESE 8 km/h 14.5 km/h 80 % 0 mm 23 W/m2
07:05 12.7 °C 9.3 °C 1010 hPa ESE 6.4 km/h 16.1 km/h 80 % 0 mm 23 W/m2
07:10 12.7 °C 9.5 °C 1010 hPa East 6.4 km/h 16.1 km/h 81 % 0 mm 30 W/m2
07:15 12.7 °C 9.5 °C 1010 hPa ESE 6.4 km/h 14.5 km/h 81 % 0 mm 51 W/m2
07:20 12.7 °C 9.5 °C 1010 hPa ESE 8 km/h 14.5 km/h 81 % 0 mm 53 W/m2
07:25 12.7 °C 9.7 °C 1010 hPa East 4.8 km/h 12.9 km/h 82 % 0 mm 54 W/m2
07:30 12.7 °C 9.7 °C 1010 hPa East 3.2 km/h 9.7 km/h 82 % 0 mm 49 W/m2
07:35 12.8 °C 9.8 °C 1010 hPa East 3.2 km/h 9.7 km/h 82 % 0 mm 60 W/m2
07:40 12.8 °C 9.8 °C 1010 hPa ESE 3.2 km/h 9.7 km/h 82 % 0 mm 60 W/m2
07:46 12.8 °C 9.8 °C 1010 hPa ESE 3.2 km/h 9.7 km/h 82 % 0 mm 54 W/m2
07:51 12.8 °C 10 °C 1010 hPa ESE 4.8 km/h 11.3 km/h 83 % 0 mm 46 W/m2
07:56 12.9 °C 10.1 °C 1010 hPa ESE 4.8 km/h 11.3 km/h 83 % 0 mm 37 W/m2
08:01 12.8 °C 10.2 °C 1010 hPa ESE 3.2 km/h 11.3 km/h 84 % 0 mm 49 W/m2
08:06 12.8 °C 10.3 °C 1010 hPa ESE 3.2 km/h 11.3 km/h 85 % 0 mm 67 W/m2
08:11 12.8 °C 10.5 °C 1010.4 hPa East 3.2 km/h 11.3 km/h 86 % 0 mm 49 W/m2
08:16 12.8 °C 10.5 °C 1010.4 hPa East 3.2 km/h 11.3 km/h 86 % 0 mm 37 W/m2
08:21 12.7 °C 10.6 °C 1010.4 hPa East 4.8 km/h 11.3 km/h 87 % 0 mm 65 W/m2
08:26 12.7 °C 10.6 °C 1010.4 hPa East 4.8 km/h 11.3 km/h 87 % 0 mm 63 W/m2
08:31 12.7 °C 10.6 °C 1010.4 hPa East 3.2 km/h 11.3 km/h 87 % 0 mm 54 W/m2
08:36 12.7 °C 10.8 °C 1010.4 hPa East 3.2 km/h 11.3 km/h 88 % 0 mm 53 W/m2
08:41 12.7 °C 10.8 °C 1010.4 hPa East 1.6 km/h 9.7 km/h 88 % 0 mm 56 W/m2
08:46 12.8 °C 10.8 °C 1010.4 hPa ESE 1.6 km/h 9.7 km/h 88 % 0 mm 56 W/m2
08:51 12.8 °C 10.8 °C 1010.4 hPa East 3.2 km/h 9.7 km/h 88 % 0 mm 65 W/m2
08:56 12.8 °C 10.8 °C 1010.4 hPa East 3.2 km/h 9.7 km/h 88 % 0 mm 67 W/m2
09:01 12.8 °C 11.1 °C 1010.4 hPa East 3.2 km/h 9.7 km/h 89 % 0 mm 65 W/m2
09:06 12.9 °C 11.1 °C 1010 hPa East 3.2 km/h 11.3 km/h 89 % 0 mm 77 W/m2
09:11 12.9 °C 11.1 °C 1010 hPa East 3.2 km/h 11.3 km/h 89 % 0 mm 90 W/m2
09:16 12.9 °C 11.1 °C 1010 hPa ENE 4.8 km/h 12.9 km/h 89 % 0 mm 93 W/m2
09:21 13 °C 11.2 °C 1010 hPa East 4.8 km/h 12.9 km/h 89 % 0 mm 107 W/m2
09:26 13 °C 11.1 °C 1009.7 hPa East 4.8 km/h 14.5 km/h 88 % 0 mm 158 W/m2
09:31 13.1 °C 11.2 °C 1009.7 hPa East 6.4 km/h 14.5 km/h 88 % 0 mm 139 W/m2
09:36 13.1 °C 11 °C 1009.7 hPa East 8 km/h 16.1 km/h 87 % 0 mm 156 W/m2
09:41 13.2 °C 11.1 °C 1009.7 hPa East 8 km/h 16.1 km/h 87 % 0 mm 151 W/m2
09:46 13.3 °C 11.2 °C 1009.7 hPa East 8 km/h 14.5 km/h 87 % 0 mm 144 W/m2
09:51 13.3 °C 11 °C 1009.7 hPa ESE 8 km/h 14.5 km/h 86 % 0 mm 123 W/m2
09:56 13.4 °C 11.1 °C 1009.7 hPa ESE 9.7 km/h 19.3 km/h 86 % 0 mm 155 W/m2
10:01 13.4 °C 10.9 °C 1009.4 hPa ESE 11.3 km/h 19.3 km/h 85 % 0 mm 176 W/m2
10:06 13.6 °C 11.1 °C 1009.7 hPa ESE 9.7 km/h 19.3 km/h 85 % 0 mm 113 W/m2
10:11 13.6 °C 11.1 °C 1009.4 hPa ESE 9.7 km/h 17.7 km/h 85 % 0 mm 114 W/m2
10:16 13.6 °C 11.1 °C 1009.4 hPa ESE 11.3 km/h 19.3 km/h 85 % 0 mm 139 W/m2
10:21 13.6 °C 11.1 °C 1009 hPa ESE 11.3 km/h 19.3 km/h 85 % 0 mm 137 W/m2
10:26 13.7 °C 11.4 °C 1009 hPa ESE 9.7 km/h 16.1 km/h 86 % 0 mm 127 W/m2
10:31 13.7 °C 11.4 °C 1009 hPa ESE 9.7 km/h 17.7 km/h 86 % 0 mm 172 W/m2
10:36 13.6 °C 11.3 °C 1009 hPa ESE 9.7 km/h 19.3 km/h 86 % 0 mm 127 W/m2
10:41 13.6 °C 11.5 °C 1009 hPa ESE 9.7 km/h 19.3 km/h 87 % 0 mm 98 W/m2
10:46 13.6 °C 11.5 °C 1009 hPa ESE 9.7 km/h 17.7 km/h 87 % 0 mm 86 W/m2
10:51 13.5 °C 11.4 °C 1009 hPa ESE 11.3 km/h 20.9 km/h 87 % 0 mm 104 W/m2
10:57 13.5 °C 11.4 °C 1009 hPa ESE 11.3 km/h 20.9 km/h 87 % 0 mm 153 W/m2
11:02 13.6 °C 11.7 °C 1009 hPa ESE 11.3 km/h 20.9 km/h 88 % 0 mm 160 W/m2
11:07 13.6 °C 11.7 °C 1009 hPa ESE 12.9 km/h 20.9 km/h 88 % 0 mm 153 W/m2
11:12 13.6 °C 11.8 °C 1009 hPa ESE 12.9 km/h 20.9 km/h 89 % 0 mm 220 W/m2
11:17 13.7 °C 11.9 °C 1008.7 hPa ESE 9.7 km/h 19.3 km/h 89 % 0 mm 246 W/m2
11:22 13.7 °C 11.9 °C 1008.4 hPa ESE 9.7 km/h 17.7 km/h 89 % 0 mm 267 W/m2
11:26 13.9 °C 12.1 °C 1008 hPa ESE 11.3 km/h 19.3 km/h 89 % 0 mm 283 W/m2
11:31 14.1 °C 12.2 °C 1008 hPa ESE 11.3 km/h 22.5 km/h 88 % 0 mm 285 W/m2
11:37 14.2 °C 12.1 °C 1008.4 hPa ESE 12.9 km/h 24.1 km/h 87 % 0 mm 374 W/m2
11:42 14.4 °C 12.1 °C 1008.4 hPa ESE 12.9 km/h 24.1 km/h 86 % 0 mm 550 W/m2
11:47 14.8 °C 12.3 °C 1008.4 hPa ESE 12.9 km/h 24.1 km/h 85 % 0 mm 522 W/m2
11:52 15 °C 12.1 °C 1008.4 hPa ESE 14.5 km/h 24.1 km/h 83 % 0 mm 418 W/m2
11:57 15.2 °C 12.2 °C 1008 hPa ESE 14.5 km/h 24.1 km/h 82 % 0 mm 369 W/m2
12:02 15.4 °C 12.2 °C 1008 hPa ESE 12.9 km/h 20.9 km/h 81 % 0 mm 322 W/m2
12:07 15.4 °C 11.8 °C 1008 hPa ESE 12.9 km/h 24.1 km/h 79 % 0 mm 327 W/m2
12:12 15.4 °C 11.4 °C 1008 hPa ESE 12.9 km/h 24.1 km/h 77 % 0 mm 320 W/m2
12:17 15.5 °C 11.5 °C 1008 hPa ESE 12.9 km/h 22.5 km/h 77 % 0 mm 364 W/m2
12:22 15.7 °C 11.3 °C 1008 hPa ESE 12.9 km/h 22.5 km/h 75 % 0 mm 316 W/m2
12:26 15.7 °C 11.3 °C 1008 hPa ESE 12.9 km/h 22.5 km/h 75 % 0 mm 318 W/m2
12:31 15.7 °C 11.1 °C 1008 hPa ESE 14.5 km/h 24.1 km/h 74 % 0 mm 330 W/m2
12:36 15.8 °C 11.4 °C 1007.7 hPa ESE 12.9 km/h 24.1 km/h 75 % 0 mm 327 W/m2
12:41 16.1 °C 11.3 °C 1007.7 hPa ESE 9.7 km/h 19.3 km/h 73 % 0 mm 299 W/m2
12:46 16.1 °C 10.6 °C 1007.7 hPa ESE 9.7 km/h 19.3 km/h 70 % 0 mm 241 W/m2
12:51 16.1 °C 10.6 °C 1007.7 hPa ESE 12.9 km/h 19.3 km/h 70 % 0 mm 221 W/m2
12:56 15.9 °C 10.7 °C 1007.7 hPa ESE 12.9 km/h 20.9 km/h 71 % 0 mm 183 W/m2
13:01 15.9 °C 10.8 °C 1007.7 hPa ESE 12.9 km/h 20.9 km/h 72 % 0 mm 179 W/m2
13:06 16 °C 10.9 °C 1007.7 hPa SE 11.3 km/h 22.5 km/h 72 % 0 mm 165 W/m2
13:11 16 °C 11.2 °C 1007.7 hPa ESE 11.3 km/h 22.5 km/h 73 % 0 mm 199 W/m2
13:16 15.9 °C 11.1 °C 1007.3 hPa ESE 12.9 km/h 20.9 km/h 73 % 0 mm 255 W/m2
13:21 15.9 °C 11.3 °C 1007.3 hPa SE 14.5 km/h 29 km/h 74 % 0 mm 197 W/m2
13:26 15.8 °C 11.6 °C 1007.3 hPa SE 14.5 km/h 29 km/h 76 % 0 mm 178 W/m2
13:31 15.7 °C 11.5 °C 1007.3 hPa SE 12.9 km/h 22.5 km/h 76 % 0 mm 243 W/m2
13:36 15.5 °C 11.3 °C 1007.3 hPa SE 14.5 km/h 22.5 km/h 76 % 0 mm 345 W/m2
13:41 15.6 °C 11.8 °C 1007.3 hPa ESE 12.9 km/h 20.9 km/h 78 % 0 mm 309 W/m2
13:46 15.6 °C 12.3 °C 1007.3 hPa SE 11.3 km/h 19.3 km/h 81 % 0 mm 218 W/m2
13:51 15.4 °C 12.3 °C 1007.3 hPa ESE 12.9 km/h 19.3 km/h 82 % 0 mm 304 W/m2
13:56 15.4 °C 12.7 °C 1007.3 hPa ESE 11.3 km/h 19.3 km/h 84 % 0 mm 380 W/m2
14:01 15.5 °C 12.8 °C 1007.3 hPa ESE 9.7 km/h 20.9 km/h 84 % 0 mm 225 W/m2
14:06 15.5 °C 12.8 °C 1007.3 hPa ESE 11.3 km/h 20.9 km/h 84 % 0 mm 221 W/m2
14:09 15.5 °C 12.8 °C 1007.3 hPa ESE 11.3 km/h 20.9 km/h 84 % 0 mm 267 W/m2
14:14 15.6 °C 13.1 °C 1007 hPa ESE 9.7 km/h 16.1 km/h 85 % 0 mm 153 W/m2
14:19 15.6 °C 12.7 °C 1007 hPa ESE 9.7 km/h 20.9 km/h 83 % 0 mm 341 W/m2
14:24 15.7 °C 12.8 °C 1007 hPa ESE 11.3 km/h 20.9 km/h 83 % 0 mm 179 W/m2
14:29 15.7 °C 12.8 °C 1007 hPa ESE 9.7 km/h 19.3 km/h 83 % 0 mm 128 W/m2
14:34 15.6 °C 12.6 °C 1007 hPa ESE 9.7 km/h 19.3 km/h 82 % 0 mm 255 W/m2
14:39 15.6 °C 12.6 °C 1007 hPa ESE 11.3 km/h 19.3 km/h 82 % 0 mm 185 W/m2
14:44 15.6 °C 12.6 °C 1006.7 hPa ESE 11.3 km/h 19.3 km/h 82 % 0 mm 158 W/m2
14:49 15.6 °C 12.6 °C 1007 hPa ESE 11.3 km/h 19.3 km/h 82 % 0 mm 118 W/m2
14:54 15.6 °C 12.6 °C 1006.7 hPa ESE 9.7 km/h 19.3 km/h 82 % 0 mm 93 W/m2
14:59 15.6 °C 12.6 °C 1007 hPa ESE 11.3 km/h 17.7 km/h 82 % 0 mm 69 W/m2
15:04 15.5 °C 12.4 °C 1006.7 hPa ESE 11.3 km/h 17.7 km/h 82 % 0 mm 172 W/m2
15:09 15.5 °C 12.4 °C 1006.7 hPa ESE 9.7 km/h 17.7 km/h 82 % 0 mm 332 W/m2
15:14 15.7 °C 12.3 °C 1006.7 hPa ESE 9.7 km/h 17.7 km/h 80 % 0 mm 336 W/m2
15:19 16 °C 12.3 °C 1006.7 hPa ESE 9.7 km/h 19.3 km/h 79 % 0 mm 322 W/m2
15:24 16.2 °C 12.2 °C 1006.7 hPa ESE 11.3 km/h 20.9 km/h 77 % 0 mm 327 W/m2
15:29 16.4 °C 11.9 °C 1006.7 hPa SE 12.9 km/h 20.9 km/h 75 % 0 mm 276 W/m2
15:34 16.6 °C 12.2 °C 1006.7 hPa SE 11.3 km/h 19.3 km/h 75 % 0 mm 167 W/m2
15:39 16.6 °C 12.2 °C 1006.3 hPa ESE 9.7 km/h 19.3 km/h 75 % 0 mm 220 W/m2
15:44 16.6 °C 12.2 °C 1006.3 hPa ESE 11.3 km/h 19.3 km/h 75 % 0 mm 288 W/m2
15:50 16.7 °C 12.4 °C 1006.3 hPa ESE 9.7 km/h 17.7 km/h 76 % 0 mm 183 W/m2
15:55 16.7 °C 12.4 °C 1006.3 hPa ESE 9.7 km/h 16.1 km/h 76 % 0 mm 90 W/m2
16:00 16.6 °C 12.7 °C 1006.3 hPa ESE 8 km/h 16.1 km/h 78 % 0 mm 58 W/m2
16:05 16.4 °C 12.6 °C 1006 hPa ESE 8 km/h 17.7 km/h 78 % 0 mm 51 W/m2
16:10 16.3 °C 12.8 °C 1006.3 hPa ESE 8 km/h 17.7 km/h 80 % 0 mm 37 W/m2
16:15 16.1 °C 12.7 °C 1006 hPa ESE 9.7 km/h 17.7 km/h 80 % 0 mm 32 W/m2
16:20 15.9 °C 12.7 °C 1006 hPa ESE 11.3 km/h 17.7 km/h 81 % 0 mm 32 W/m2
16:25 15.8 °C 12.7 °C 1006 hPa ESE 9.7 km/h 17.7 km/h 82 % 0 mm 44 W/m2
16:30 15.7 °C 12.6 °C 1006 hPa ESE 9.7 km/h 17.7 km/h 82 % 0 mm 44 W/m2
16:35 15.7 °C 12.6 °C 1006 hPa ESE 9.7 km/h 17.7 km/h 82 % 0 mm 44 W/m2
16:40 15.6 °C 12.6 °C 1006 hPa ESE 9.7 km/h 16.1 km/h 82 % 0 mm 51 W/m2
16:45 15.6 °C 12.6 °C 1005.6 hPa ESE 9.7 km/h 17.7 km/h 82 % 0 mm 46 W/m2
16:50 15.6 °C 12.6 °C 1006 hPa ESE 11.3 km/h 17.7 km/h 82 % 0 mm 44 W/m2
16:55 15.5 °C 12.4 °C 1005.6 hPa ESE 11.3 km/h 17.7 km/h 82 % 0 mm 42 W/m2
17:00 15.5 °C 12.4 °C 1005.6 hPa ESE 11.3 km/h 19.3 km/h 82 % 0 mm 46 W/m2
17:05 15.4 °C 12.3 °C 1005.6 hPa ESE 11.3 km/h 20.9 km/h 82 % 0 mm 40 W/m2
17:10 15.4 °C 12.3 °C 1005.6 hPa ESE 11.3 km/h 20.9 km/h 82 % 0 mm 42 W/m2
17:15 15.4 °C 12.5 °C 1005.6 hPa ESE 11.3 km/h 19.3 km/h 83 % 0 mm 44 W/m2
17:20 15.3 °C 12.4 °C 1005.6 hPa ESE 11.3 km/h 19.3 km/h 83 % 0 mm 44 W/m2
17:25 15.2 °C 12.3 °C 1005.6 hPa ESE 12.9 km/h 19.3 km/h 83 % 0 mm 39 W/m2
17:27 15.2 °C 12.3 °C 1005.6 hPa ESE 12.9 km/h 19.3 km/h 83 % 0 mm 37 W/m2
17:32 15.2 °C 12.3 °C 1005.6 hPa ESE 9.7 km/h 19.3 km/h 83 % 0 mm 42 W/m2
17:37 15.2 °C 12.5 °C 1005.6 hPa ESE 9.7 km/h 20.9 km/h 84 % 0 mm 39 W/m2
17:42 15.1 °C 12.4 °C 1005.6 hPa ESE 9.7 km/h 20.9 km/h 84 % 0 mm 33 W/m2
17:47 15.1 °C 12.4 °C 1005.6 hPa ESE 9.7 km/h 16.1 km/h 84 % 0 mm 28 W/m2
17:52 15 °C 12.3 °C 1005.6 hPa ESE 9.7 km/h 19.3 km/h 84 % 0 mm 28 W/m2
17:57 14.9 °C 12.2 °C 1005.3 hPa ESE 11.3 km/h 19.3 km/h 84 % 0 mm 25 W/m2
18:02 14.8 °C 12.3 °C 1005.3 hPa ESE 11.3 km/h 19.3 km/h 85 % 0 mm 19 W/m2
18:07 14.7 °C 12.2 °C 1005.3 hPa ESE 12.9 km/h 22.5 km/h 85 % 0 mm 18 W/m2
18:12 14.6 °C 12.1 °C 1005.3 hPa ESE 12.9 km/h 22.5 km/h 85 % 0 mm 18 W/m2
18:17 14.5 °C 12.2 °C 1005.3 hPa ESE 11.3 km/h 20.9 km/h 86 % 0 mm 21 W/m2
18:22 14.4 °C 12.1 °C 1005.3 hPa ESE 12.9 km/h 20.9 km/h 86 % 0 mm 18 W/m2
18:27 14.3 °C 12 °C 1005.3 hPa ESE 12.9 km/h 19.3 km/h 86 % 0 mm 19 W/m2
18:32 14.3 °C 12.2 °C 1005.3 hPa ESE 11.3 km/h 19.3 km/h 87 % 0 mm 18 W/m2
18:37 14.2 °C 12.1 °C 1005.3 hPa ESE 11.3 km/h 22.5 km/h 87 % 0 mm 16 W/m2
18:42 14.1 °C 12.2 °C 1005.3 hPa ESE 11.3 km/h 22.5 km/h 88 % 0 mm 16 W/m2
18:47 14 °C 12.1 °C 1005.3 hPa ESE 11.3 km/h 20.9 km/h 88 % 0 mm 12 W/m2
18:52 13.9 °C 11.9 °C 1005.3 hPa ESE 11.3 km/h 20.9 km/h 88 % 0 mm 12 W/m2
18:57 13.8 °C 12 °C 1005.3 hPa ESE 12.9 km/h 20.9 km/h 89 % 0 mm 12 W/m2
19:02 13.7 °C 11.7 °C 1005.3 hPa ESE 11.3 km/h 20.9 km/h 88 % 0 mm 14 W/m2
19:07 13.7 °C 11.7 °C 1005.3 hPa ESE 11.3 km/h 20.9 km/h 88 % 0 mm 12 W/m2
19:12 13.8 °C 11.8 °C 1005.3 hPa ESE 8 km/h 19.3 km/h 88 % 0 mm 12 W/m2
19:17 13.8 °C 11.8 °C 1005.3 hPa East 6.4 km/h 16.1 km/h 88 % 0 mm 12 W/m2
19:22 13.9 °C 11.9 °C 1005.3 hPa ESE 6.4 km/h 16.1 km/h 88 % 0 mm 16 W/m2
19:27 13.9 °C 11.9 °C 1005.3 hPa ESE 8 km/h 16.1 km/h 88 % 0 mm 16 W/m2
19:32 13.9 °C 11.8 °C 1005.3 hPa ESE 8 km/h 14.5 km/h 87 % 0 mm 18 W/m2
19:37 13.9 °C 11.8 °C 1005.3 hPa ESE 8 km/h 14.5 km/h 87 % 0 mm 18 W/m2
19:42 13.9 °C 11.8 °C 1005.3 hPa East 8 km/h 17.7 km/h 87 % 0 mm 16 W/m2
19:47 13.9 °C 11.8 °C 1005.3 hPa ESE 6.4 km/h 17.7 km/h 87 % 0 mm 12 W/m2
19:52 13.9 °C 11.8 °C 1005.3 hPa ESE 6.4 km/h 16.1 km/h 87 % 0 mm 12 W/m2
19:57 13.9 °C 11.8 °C 1005.3 hPa ESE 8 km/h 16.1 km/h 87 % 0 mm 11 W/m2
20:02 13.9 °C 11.9 °C 1005 hPa ESE 8 km/h 14.5 km/h 88 % 0 mm 9 W/m2
20:07 13.9 °C 11.9 °C 1005 hPa ESE 8 km/h 16.1 km/h 88 % 0 mm 11 W/m2
20:12 13.8 °C 11.8 °C 1005 hPa East 8 km/h 16.1 km/h 88 % 0 mm 9 W/m2
20:17 13.8 °C 12 °C 1005 hPa East 6.4 km/h 16.1 km/h 89 % 0 mm 9 W/m2
20:22 13.8 °C 12 °C 1005 hPa East 6.4 km/h 14.5 km/h 89 % 0 mm 9 W/m2
20:27 13.8 °C 12 °C 1005 hPa ESE 6.4 km/h 12.9 km/h 89 % 0 mm 9 W/m2
20:32 13.7 °C 11.9 °C 1005 hPa East 6.4 km/h 16.1 km/h 89 % 0 mm 7 W/m2
20:37 13.7 °C 11.9 °C 1004.6 hPa East 6.4 km/h 16.1 km/h 89 % 0 mm 7 W/m2
20:42 13.7 °C 12.1 °C 1004.6 hPa ESE 8 km/h 14.5 km/h 90 % 0 mm 5 W/m2
20:47 13.7 °C 12.1 °C 1004.6 hPa ESE 8 km/h 14.5 km/h 90 % 0 mm 5 W/m2
20:52 13.7 °C 12.3 °C 1004.6 hPa East 6.4 km/h 14.5 km/h 91 % 0 mm 5 W/m2
20:57 13.6 °C 12.2 °C 1004.6 hPa East 9.7 km/h 19.3 km/h 91 % 0 mm 0 W/m2
21:02 13.5 °C 12.1 °C 1004.6 hPa East 8 km/h 19.3 km/h 91 % 0 mm 0 W/m2
21:07 13.4 °C 11.9 °C 1005 hPa East 8 km/h 16.1 km/h 91 % 0 mm 0 W/m2
21:12 13.3 °C 12 °C 1004.6 hPa East 8 km/h 16.1 km/h 92 % 0 mm 0 W/m2
21:18 13.3 °C 12 °C 1004.6 hPa East 8 km/h 16.1 km/h 92 % 0 mm 0 W/m2
21:23 13.2 °C 11.9 °C 1004.6 hPa East 8 km/h 14.5 km/h 92 % 0 mm 0 W/m2
21:28 13.2 °C 11.9 °C 1004.6 hPa ESE 9.7 km/h 19.3 km/h 92 % 0 mm 0 W/m2
21:33 13.1 °C 11.8 °C 1004.6 hPa ESE 11.3 km/h 19.3 km/h 92 % 0 mm 0 W/m2
21:38 13 °C 11.7 °C 1005 hPa ESE 9.7 km/h 19.3 km/h 92 % 0 mm 0 W/m2
21:43 13 °C 11.9 °C 1004.6 hPa ESE 9.7 km/h 16.1 km/h 93 % 0 mm 0 W/m2
21:48 13 °C 11.9 °C 1004.6 hPa ESE 8 km/h 14.5 km/h 93 % 0 mm 0 W/m2
21:53 12.9 °C 11.8 °C 1004.6 hPa East 6.4 km/h 14.5 km/h 93 % 0 mm 0 W/m2
21:58 12.9 °C 11.8 °C 1004.6 hPa East 8 km/h 14.5 km/h 93 % 0 mm 0 W/m2
22:03 12.9 °C 11.8 °C 1004.6 hPa East 6.4 km/h 14.5 km/h 93 % 0 mm 0 W/m2
22:08 12.9 °C 11.8 °C 1004.6 hPa East 4.8 km/h 14.5 km/h 93 % 0 mm 0 W/m2
22:13 12.8 °C 11.7 °C 1004.6 hPa East 3.2 km/h 11.3 km/h 93 % 0 mm 0 W/m2
22:18 12.9 °C 11.8 °C 1004.6 hPa East 3.2 km/h 9.7 km/h 93 % 0 mm 0 W/m2
22:23 12.8 °C 11.8 °C 1004.6 hPa East 4.8 km/h 9.7 km/h 94 % 0 mm 0 W/m2
22:28 12.8 °C 11.8 °C 1004.6 hPa East 3.2 km/h 11.3 km/h 94 % 0 mm 0 W/m2
22:33 12.8 °C 11.8 °C 1004.6 hPa East 4.8 km/h 11.3 km/h 94 % 0 mm 0 W/m2
22:38 12.8 °C 11.8 °C 1004.6 hPa East 6.4 km/h 12.9 km/h 94 % 0 mm 0 W/m2
22:43 12.8 °C 11.8 °C 1004.6 hPa East 6.4 km/h 12.9 km/h 94 % 0 mm 0 W/m2
22:48 12.8 °C 11.8 °C 1004.3 hPa East 4.8 km/h 12.9 km/h 94 % 0 mm 0 W/m2
22:53 12.8 °C 11.8 °C 1004.3 hPa East 6.4 km/h 12.9 km/h 94 % 0.25 mm 0 W/m2
22:58 12.8 °C 12 °C 1004.3 hPa East 6.4 km/h 12.9 km/h 95 % 0.25 mm 0 W/m2
23:03 12.7 °C 11.8 °C 1004.3 hPa East 6.4 km/h 14.5 km/h 94 % 0.25 mm 0 W/m2
23:08 12.7 °C 11.9 °C 1004.3 hPa East 8 km/h 14.5 km/h 95 % 0.25 mm 0 W/m2
23:13 12.7 °C 11.9 °C 1004.3 hPa East 6.4 km/h 12.9 km/h 95 % 0.25 mm 0 W/m2
23:18 12.7 °C 11.9 °C 1004.3 hPa East 6.4 km/h 12.9 km/h 95 % 0.51 mm 0 W/m2
23:23 12.7 °C 11.9 °C 1004.3 hPa East 6.4 km/h 12.9 km/h 95 % 0.51 mm 0 W/m2
23:28 12.7 °C 11.9 °C 1004.3 hPa East 4.8 km/h 12.9 km/h 95 % 0.51 mm 0 W/m2
23:33 12.7 °C 11.9 °C 1004.3 hPa East 4.8 km/h 14.5 km/h 95 % 0.51 mm 0 W/m2
23:38 12.6 °C 11.8 °C 1004.3 hPa East 8 km/h 14.5 km/h 95 % 0.51 mm 0 W/m2
23:43 12.4 °C 11.6 °C 1004.3 hPa ENE 6.4 km/h 14.5 km/h 95 % 0.76 mm 0 W/m2
23:48 12.4 °C 11.6 °C 1004.3 hPa ENE 6.4 km/h 12.9 km/h 95 % 0.76 mm 0 W/m2
23:53 12.3 °C 11.5 °C 1004.3 hPa ENE 6.4 km/h 16.1 km/h 95 % 0.51 mm 0 W/m2
23:58 12.2 °C 11.4 °C 1004.3 hPa ENE 8 km/h 16.1 km/h 95 % 0.51 mm 0 W/m2
Delerius-Weather
Compliments of Weather Underground - 2.25 mb

Data updates at regular intervals.